EHI
0 0 0 0 0 0 0 0 0 0 0 0 0 1 2 2 2 2 2 2 2 2 1 0 0 1 2 3 3 2 1 0 0 0 0 1 1 1 2 2 1 0 0 0
0 0 0 0 0 0 0 0 0 0 0 0 0 0 1 1 1 1 1 1 1 1 0 0 0 0 1 2 2 1 0 0 0 0 1 1 1 1 1 1 0 0 0 0
0 0 0 0 0 0 0 0 0 0 0 0 0 0 0 0 0 0 0 0 0 0 0 0 0 0 1 1 1 0 0 0 0 0 1 1 1 0 0 0 0 0 0 0
0 0 0 0 0 0 0 0 0 0 0 0 0 0 0 0 0 0 0 0 0 0 0 0 0 0 0 0 0 0 0 0 0 0 0 0 0 0 0 0 0 0 0 0
0 0 0 0 0 0 0 0 0 0 0 0 0 0 0 0 0 0 0 0 0 0 0 0 0 0 0 0 0 0 0 0 0 0 0 0 0 0 0 0 0 0 0 0
0 0 0 0 0 0 0 0 0 0 0 0 0 0 0 0 0 0 0 0 0 0 0 0 0 0 1 1 1 0 0 0 0 0 0 0 0 0 0 0 0 0 0 0
0 0 0 0 0 0 0 0 0 0 0 0 0 0 0 0 0 0 0 0 0 0 0 0 0 0 1 1 1 0 0 0 0 0 0 0 0 0 0 0 0 0 0 0
0 0 0 0 0 0 0 0 0 0 0 0 0 0 0 0 0 0 0 0 0 0 0 0 0 0 0 0 0 0 0 0 0 0 0 0 0 0 0 0 0 0 0 0
0 0 0 0 0 0 0 0 0 0 0 0 0 0 0 0 0 0 0 0 0 0 0 0 0 0 0 0 0 0 0 0 0 0 0 0 0 0 0 0 0 0 0 0
0 0 0 0 0 0 0 0 0 0 0 0 0 0 0 0 0 0 0 0 0 0 0 0 0 0 0 0 0 0 0 0 0 0 0 0 0 0 0 0 0 0 0 0
0 0 0 0 0 0 0 0 0 0 0 0 0 0 0 0 0 0 0 0 0 0 0 0 0 0 0 0 0 0 0 0 0 0 0 0 0 0 0 0 0 0 0 0
0 0 0 0 0 0 0 0 0 0 0 0 0 0 0 0 0 0 0 0 0 0 0 0 0 0 0 0 0 0 0 0 0 0 0 0 0 0 0 0 0 0 0 0
0 0 0 0 0 0 0 0 0 0 0 0 0 0 0 0 0 0 0 0 0 0 0 0 0 0 0 0 0 0 0 0 0 0 0 0 0 0 0 0 0 0 0 0
0 0 0 0 0 0 0 0 0 0 0 0 0 0 0 0 0 0 0 0 0 0 0 0 0 0 0 0 0 0 0 0 0 0 0 0 0 0 0 0 0 0 0 0
0 0 0 0 0 0 0 0 0 0 0 0 0 0 0 0 0 0 0 0 0 0 0 0 0 0 0 0 0 0 0 0 0 0 0 0 0 0 0 0 0 0 0 0
0 0 0 0 0 0 0 0 0 0 0 0 0 0 0 0 0 0 0 0 0 0 0 0 0 0 0 0 0 0 0 0 0 0 0 0 0 0 0 0 0 0 0 0
0 0 0 0 0 0 0 0 0 0 0 0 0 0 0 0 0 0 0 0 0 0 0 0 0 0 0 0 0 0 0 0 0 0 0 0 0 0 0 0 0 0 0 0
0 0 0 0 0 0 0 0 0 0 0 0 0 0 0 0 0 0 0 0 0 0 0 0 0 0 0 0 0 0 0 0 0 0 0 0 0 0 0 0 0 0 0 0
0 0 0 0 0 0 0 0 0 0 0 0 0 0 0 0 0 0 0 0 0 0 0 0 0 0 0 0 0 0 0 0 0 0 0 0 0 0 0 0 0 0 0 0
0 0 0 0 0 0 0 0 0 0 0 0 0 0 0 0 0 0 0 0 0 0 0 0 0 0 0 0 0 0 0 0 0 0 0 0 0 0 0 0 0 0 0 0
0 0 0 0 0 0 0 0 0 0 0 0 0 0 0 0 0 0 0 0 0 0 0 0 0 0 0 0 0 0 0 0 0 0 0 0 0 0 0 0 0 0 0 0
0 0 0 0 0 0 0 0 0 0 0 0 0 0 0 0 0 0 0 0 0 0 0 0 0 0 0 0 0 0 0 0 0 0 0 0 0 0 0 0 0 0 0 0
0 0 0 0 0 0 0 0 0 0 0 0 0 0 0 0 0 0 0 0 0 0 0 0 0 0 0 0 0 0 0 0 0 0 0 0 0 0 0 0 0 0 0 0
0 0 0 0 0 0 0 0 0 0 0 0 0 0 0 0 0 0 0 0 0 0 0 0 0 0 0 0 0 0 0 0 0 0 0 0 0 0 0 0 0 0 0 0
0 0 0 0 0 0 0 0 0 0 0 0 0 0 0 0 0 0 0 0 0 0 0 0 0 0 0 0 0 0 0 0 0 0 0 0 0 0 0 0 0 0 0 0
0 0 0 0 0 0 0 0 0 0 0 0 0 0 0 0 0 0 0 0 0 0 0 0 0 0 0 0 0 0 0 0 0 0 0 0 0 0 0 0 0 0 0 0
Wind_Speed
1 1 1 0 2 3 3 3 4 4 2 2 4 5 4 3 3 4 3 3 3 2 2 2 2 2 2 2 2 3 3 2 2 2 1 1 1 1 2 2 2 2 2 2
1 2 1 0 0 1 3 2 3 3 1 1 2 4 3 3 4 4 3 3 3 2 1 1 1 1 1 1 1 2 2 2 2 1 1 1 1 1 1 1 1 2 1 1
2 2 1 1 0 1 2 2 3 3 2 1 1 2 3 3 2 2 2 3 3 2 2 2 1 1 1 1 1 1 1 2 1 1 2 2 2 1 1 1 1 1 1 1
3 2 1 0 1 1 2 2 3 3 2 1 2 2 3 3 2 2 2 2 3 3 2 2 2 2 1 1 1 1 1 1 1 1 2 2 1 1 1 1 1 1 1 1
2 2 1 1 3 2 2 3 2 2 2 1 2 3 2 2 3 4 3 3 3 3 2 2 2 1 1 1 1 1 1 1 1 1 1 1 1 0 1 1 2 1 1 1
1 1 2 3 4 1 1 2 1 1 1 2 2 3 2 1 4 4 3 3 3 3 2 2 1 1 1 1 1 1 1 1 1 1 1 1 1 1 1 1 1 1 0 0
2 1 2 2 2 1 1 0 0 1 2 1 1 3 2 1 2 3 3 3 2 2 2 3 2 1 1 1 1 1 1 1 1 1 1 1 1 1 1 1 1 0 0 0
2 2 2 3 2 1 1 1 1 2 2 1 1 3 0 2 2 2 2 1 1 1 1 2 2 2 2 2 2 2 2 1 1 1 1 0 0 1 1 1 1 1 1 0
1 2 2 3 3 1 0 1 2 1 1 2 3 2 2 2 3 2 1 1 1 1 1 1 1 1 2 2 2 2 2 2 1 1 1 1 1 1 1 1 1 1 1 0
1 2 3 2 1 3 2 0 1 2 2 2 3 3 2 2 4 4 3 3 2 2 2 2 1 1 1 1 2 2 2 2 1 1 1 1 1 1 1 1 1 1 1 1
1 2 2 1 1 1 1 1 1 1 2 3 2 1 2 2 3 4 4 3 3 3 2 2 2 1 1 1 1 1 2 1 1 1 1 1 1 1 1 1 1 1 1 1
1 1 2 2 1 2 2 1 2 2 1 2 3 1 1 2 3 4 4 4 3 3 2 2 2 1 1 1 1 0 1 1 1 1 1 1 1 1 2 2 1 1 1 1
2 2 2 1 3 1 1 2 2 1 1 2 3 2 1 2 4 4 5 4 3 3 2 2 1 1 1 1 1 1 1 1 1 1 1 1 2 2 2 2 2 2 2 1
2 2 4 5 3 1 3 3 3 3 3 3 5 6 6 6 5 5 5 4 4 3 3 2 2 1 1 2 2 2 2 1 1 1 1 2 2 2 2 2 2 2 2 2
2 2 3 5 6 5 5 6 6 6 6 6 6 7 8 7 6 5 5 5 4 4 3 3 3 2 2 2 2 2 2 2 1 2 2 2 2 2 2 2 2 2 2 2
1 2 2 4 4 5 6 8 7 7 7 8 8 9 7 6 5 5 4 4 4 4 4 4 3 3 2 2 3 3 2 2 2 2 2 2 2 2 2 2 2 2 2 2
2 3 3 3 2 3 6 6 7 5 5 6 8 7 5 6 6 5 5 4 5 5 5 4 4 3 3 3 3 3 3 2 2 2 2 2 2 2 2 3 2 2 2 2
3 3 2 2 2 6 1 1 3 5 5 6 6 5 6 6 6 5 4 5 5 5 4 4 4 3 3 3 2 2 2 2 2 1 1 2 2 2 3 3 3 3 2 3
3 4 2 2 3 6 4 2 2 5 6 5 6 5 5 4 4 3 3 4 5 4 4 4 3 3 2 2 2 1 1 1 1 2 2 2 2 3 3 3 3 3 3 2
1 2 3 3 4 6 1 1 1 3 5 2 4 4 4 3 4 3 4 4 4 4 3 3 2 2 1 2 1 1 1 1 2 2 3 2 3 3 3 3 3 3 3 3
2 2 4 5 5 6 1 1 3 5 3 1 3 4 4 4 4 4 4 4 3 3 3 3 2 1 2 2 1 1 1 2 3 3 3 3 3 3 3 3 3 3 2 2
5 4 5 5 6 6 3 4 5 3 2 2 3 4 4 4 4 3 3 3 3 3 3 2 2 2 2 1 1 1 2 3 3 3 2 3 3 2 2 3 2 2 2 2
7 6 4 7 5 2 3 4 3 2 3 4 4 4 3 4 4 3 3 3 3 3 2 2 2 2 2 2 2 2 3 3 3 3 3 2 2 2 2 2 2 2 2 2
5 4 5 6 8 5 5 4 4 4 4 4 3 3 3 3 3 3 3 2 2 2 2 2 2 2 2 2 2 3 3 3 3 3 3 2 2 2 2 2 2 2 2 2
5 6 6 8 6 5 5 6 5 4 4 4 3 3 3 3 3 3 3 2 2 2 2 2 2 3 3 3 3 3 3 3 3 3 2 2 2 3 2 2 2 3 3 3
7 8 7 6 5 5 4 4 5 5 5 4 4 3 3 3 3 3 3 2 2 2 2 2 3 3 3 3 3 3 3 3 3 3 3 2 2 2 2 2 2 2 4 5
Wind_Direction
9 123 105 247 251 282 264 255 272 283 301 253 231 238 236 202 201 210 202 190 184 182 159 135 122 112 113 89 84 84 86 80 74 81 83 83 82 83 73 60 54 57 70 100
136 69 20 120 296 263 244 243 302 308 349 276 250 261 243 212 212 222 215 211 209 196 178 147 117 110 134 126 95 83 86 88 74 57 74 73 90 102 89 74 62 39 49 91
46 35 21 148 181 285 255 249 292 296 330 141 250 252 198 197 192 196 220 226 225 220 211 198 189 174 171 150 88 84 104 90 81 83 81 84 80 99 110 83 60 37 45 61
31 1 337 111 345 308 299 311 287 266 231 203 252 240 192 198 203 230 229 229 234 229 222 206 199 202 196 173 111 111 93 91 89 98 109 119 129 140 147 153 121 98 89 61
31 356 328 330 328 308 302 314 281 243 192 231 218 225 215 183 242 251 237 224 229 227 219 212 212 211 181 138 94 88 103 95 90 109 127 144 132 68 79 120 129 116 108 75
359 338 341 333 330 298 285 289 183 174 194 221 250 233 224 214 260 266 242 234 234 230 223 221 219 177 135 101 79 83 128 108 137 165 151 163 162 131 110 114 137 125 105 113
13 65 21 343 3 71 348 344 199 180 204 222 127 244 251 307 279 270 256 238 241 226 215 213 208 184 160 156 141 173 173 154 167 176 183 204 206 195 193 203 194 167 172 282
346 0 19 359 346 307 279 283 296 277 244 278 192 231 272 16 344 317 291 256 244 262 233 223 219 210 192 183 181 194 190 185 187 192 200 203 212 222 227 247 236 219 232 244
320 319 13 0 342 313 12 40 328 288 260 234 221 233 282 8 10 2 350 354 346 340 338 284 246 239 212 196 194 199 198 200 205 212 210 216 215 234 244 255 263 247 243 250
297 282 323 331 282 39 350 27 217 218 231 235 223 239 269 328 346 360 357 343 337 338 341 330 319 315 291 230 205 201 206 204 210 224 228 240 248 254 258 244 269 275 250 228
264 247 306 339 303 286 104 111 274 243 301 270 239 242 35 325 336 338 341 341 329 324 324 322 327 331 340 339 215 197 210 212 219 231 243 247 254 260 252 248 255 264 256 226
268 260 279 282 309 293 271 265 245 248 232 265 274 277 61 341 337 335 333 333 327 322 322 322 325 346 358 3 356 250 223 221 243 241 242 252 259 256 253 254 258 264 252 226
174 194 257 219 184 180 240 260 262 274 253 245 253 241 88 351 346 344 337 337 328 321 316 320 325 334 339 343 338 329 299 285 286 264 247 253 258 255 260 268 264 257 249 227
201 204 237 256 297 270 258 258 241 229 240 248 254 267 284 311 323 333 335 331 328 320 306 304 302 315 332 332 326 321 321 307 286 266 255 260 266 269 271 274 273 259 244 232
208 224 241 272 281 266 269 270 248 233 244 257 267 269 284 298 307 313 320 324 327 327 319 306 300 304 317 324 319 318 317 305 273 264 266 278 287 290 285 277 272 266 251 243
221 221 245 271 269 261 275 276 256 245 248 252 264 273 289 299 302 305 314 323 318 315 314 305 298 299 305 307 307 306 304 301 273 266 279 295 297 296 292 284 273 264 256 248
214 201 227 252 300 272 263 252 230 229 238 244 253 272 297 297 303 306 310 315 309 304 302 298 291 287 293 295 295 293 296 300 279 272 290 295 293 295 299 295 281 264 254 247
208 193 218 257 243 242 262 71 220 231 251 252 263 277 280 295 307 304 317 317 310 308 303 300 296 294 297 294 289 290 296 294 283 284 291 296 298 299 300 292 288 281 265 254
232 197 191 216 247 269 264 227 205 227 263 249 252 275 293 313 303 277 324 320 305 303 302 299 300 299 301 300 291 273 274 285 290 294 299 302 299 297 297 298 295 292 279 269
129 197 201 208 240 255 277 90 191 230 261 222 232 257 274 283 275 301 344 325 314 319 321 316 315 310 313 320 304 276 302 311 309 305 299 296 291 287 288 295 298 298 291 281
181 191 214 225 241 262 314 150 179 226 288 346 249 252 244 249 281 316 325 321 315 324 330 331 327 327 328 328 312 306 324 318 315 309 300 298 294 289 288 293 295 295 293 288
201 196 202 207 225 245 142 160 211 268 337 293 273 261 255 267 288 303 308 311 319 334 339 338 333 342 345 339 320 312 319 317 313 305 297 298 300 299 292 292 294 293 291 286
222 219 215 216 236 309 194 223 263 296 273 279 275 277 264 267 278 291 300 307 316 322 327 325 324 337 344 335 318 307 317 317 307 298 297 300 306 305 298 294 295 294 288 281
229 226 232 247 252 257 245 248 259 264 269 281 278 274 259 263 269 279 292 298 306 317 320 319 314 314 324 325 314 306 311 310 303 299 302 306 308 313 311 301 292 286 279 278
227 197 224 249 263 264 237 234 242 251 263 269 273 266 257 258 262 267 276 281 287 297 304 295 288 291 303 314 312 315 313 309 303 301 304 307 306 306 307 303 296 290 283 286
205 201 209 237 228 226 239 219 218 238 248 248 246 254 256 252 257 263 268 273 277 285 289 282 286 291 300 306 308 316 315 307 300 299 304 308 306 307 308 310 311 299 287 297